Madisonville, KY

1:36 AM CDT on March 28, 2017 (GMT -0500)
Madisonville

Weather History for K2I0 - October, 2013

Change the Weather History Date:

Sunday, October 6, 2013

  Actual Average (KOWB) Record (KOWB)
Temperature  
Mean Temperature 61 °F -  
Max Temperature 70 °F 74 °F 92 °F (1946)
Min Temperature 50 °F 48 °F 30 °F (1980)
Degree Days  
Heating Degree Days 4    
Growing Degree Days 11 (Base 50)    
Moisture  
Dew Point 57 °F    
Average Humidity 86    
Maximum Humidity 100    
Minimum Humidity 60    
Precipitation  
Precipitation 2.17 in - - ()
Sea Level Pressure  
Sea Level Pressure 29.88 in    
Wind  
Wind Speed 6 mph (West)    
Max Wind Speed 15 mph    
Max Gust Speed 20 mph    
Visibility 8 miles    
Events Rain    
Averages and records for this station are not official NWS values.
T = Trace of Precipitation, MM = Missing Value Source: NWS Daily Summary

Daily Weather History Graph

Daily Weather History Graph

Search for Another Location

Airport or City:

Trip Planner

Search our weather history database for the weather conditions in past years. The results will help you decide how hot, cold, wet, or windy it might be!

Date:

Astronomy

Oct. 06, 2013 Rise Set
Actual Time 6:49 AM CDT 6:24 PM CDT
Civil Twilight 6:23 AM CDT 6:51 PM CDT
Nautical Twilight 5:53 AM CDT 7:21 PM CDT
Astronomical Twilight 5:23 AM CDT 7:51 PM CDT
Moon 8:30 AM CDT (10/6) 7:27 PM CDT (10/6)
Length of Visible Light 12h 27m
Length of Day
11h 35m
Waxing Crescent, 3% of the Moon is Illuminated
Oct 6
Waxing Crescent
Oct 11
First Quarter
Oct 18
Full
Oct 26
Last Quarter
Nov 3
New

Hourly Weather History & Observations

Time (CDT) Temp. Dew Point Humidity Pressure Visibility Wind Dir Wind Speed Gust Speed Precip Events Conditions
12:15 AM 71.6 °F 71.1 °F 98% 29.88 in 10.0 mi NW 5.8 mph - N/A   Overcast
12:35 AM 71.6 °F 70.0 °F 95% 29.89 in 10.0 mi WNW 13.8 mph 19.6 mph N/A   Overcast
12:55 AM 70.7 °F 68.9 °F 94% 29.88 in 10.0 mi WNW 6.9 mph - N/A   Overcast
1:15 AM 70.0 °F 68.9 °F 96% 29.87 in 10.0 mi North 3.5 mph - N/A   Overcast
1:35 AM 68.7 °F 68.4 °F 99% 29.88 in 2.5 mi NW 11.5 mph - 0.25 in Rain Heavy Rain
1:55 AM 68.0 °F 68.0 °F 100% 29.89 in 1.5 mi SE 5.8 mph - 0.67 in Rain Heavy Rain
2:15 AM 68.0 °F 67.8 °F 99% 29.88 in 3.0 mi Calm Calm - 0.10 in Rain Heavy Rain
2:35 AM 67.6 °F 67.6 °F 100% 29.88 in 3.0 mi Calm Calm - 0.37 in Rain Heavy Rain
2:55 AM 67.6 °F 67.6 °F 100% 29.88 in 1.0 mi Calm Calm - 0.66 in Rain Heavy Rain
3:15 AM 67.5 °F 67.5 °F 100% 29.86 in 4.0 mi Calm Calm - 0.07 in Rain Rain
3:35 AM 67.3 °F 67.3 °F 100% 29.86 in 5.0 mi SSE 3.5 mph - 0.12 in Rain Rain
3:55 AM 67.3 °F 67.3 °F 100% 29.86 in 5.0 mi Calm Calm - 0.20 in Rain Rain
4:15 AM 67.3 °F 67.3 °F 100% 29.86 in 4.0 mi SSE 3.5 mph - 0.06 in Rain Heavy Rain
4:35 AM 67.3 °F 67.3 °F 100% 29.85 in 5.0 mi SSE 3.5 mph - 0.15 in Rain Rain
4:55 AM 67.3 °F 67.3 °F 100% 29.85 in 3.0 mi Calm Calm - 0.25 in Rain Heavy Rain
5:15 AM 67.5 °F 67.5 °F 100% 29.85 in 3.0 mi Calm Calm - 0.08 in Rain Rain
5:35 AM 67.3 °F 67.3 °F 100% 29.86 in 7.0 mi Calm Calm - 0.14 in Rain Rain
5:55 AM 63.9 °F 63.9 °F 100% 29.90 in 5.0 mi WNW 10.4 mph 19.6 mph 0.21 in Rain Heavy Rain
6:15 AM 59.4 °F 59.4 °F 100% 29.88 in 7.0 mi NNW 11.5 mph 18.4 mph 0.07 in Rain Rain
6:35 AM 58.5 °F 58.5 °F 100% 29.88 in 7.0 mi NNW 4.6 mph - 0.14 in Rain Rain
6:55 AM 58.1 °F 58.1 °F 100% 29.87 in 10.0 mi North 6.9 mph - 0.16 in Rain Light Rain
7:15 AM 58.1 °F 58.1 °F 100% 29.87 in 10.0 mi NW 3.5 mph - 0.01 in Rain Light Rain
7:35 AM 58.1 °F 58.1 °F 100% 29.89 in 10.0 mi WNW 9.2 mph - 0.01 in Rain Rain
7:55 AM 57.2 °F 57.2 °F 100% 29.88 in 5.0 mi NW 9.2 mph - 0.01 in   Drizzle
8:15 AM 56.8 °F 56.8 °F 100% 29.89 in 10.0 mi WNW 5.8 mph - N/A   Overcast
8:35 AM 57.2 °F 57.2 °F 100% 29.89 in 10.0 mi WNW 8.1 mph - N/A   Overcast
8:55 AM 56.7 °F 56.7 °F 100% 29.90 in 7.0 mi WNW 6.9 mph - N/A   Overcast
9:15 AM 56.1 °F 55.8 °F 99% 29.91 in 3.0 mi WNW 6.9 mph - N/A   Light Drizzle
9:35 AM 55.4 °F 55.4 °F 100% 29.90 in 1.8 mi WNW 3.5 mph - N/A   Heavy Drizzle
9:55 AM 55.8 °F 55.8 °F 100% 29.90 in 2.5 mi Calm Calm - 0.01 in   Drizzle
10:15 AM 56.3 °F 56.3 °F 100% 29.90 in 7.0 mi Calm Calm - N/A   Overcast
10:35 AM 57.2 °F 57.2 °F 100% 29.90 in 7.0 mi West 5.8 mph - N/A   Light Drizzle
10:55 AM 57.4 °F 57.4 °F 100% 29.90 in 2.0 mi West 5.8 mph - N/A   Drizzle
11:15 AM 58.1 °F 58.1 °F 100% 29.89 in 10.0 mi West 5.8 mph - N/A   Overcast
11:35 AM 58.1 °F 56.5 °F 94% 29.89 in 10.0 mi West 9.2 mph - N/A   Overcast
11:55 AM 59.5 °F 55.8 °F 87% 29.89 in 10.0 mi WSW 8.1 mph - N/A   Overcast
12:15 PM 60.6 °F 56.5 °F 86% 29.88 in 10.0 mi West 5.8 mph - N/A   Overcast
12:35 PM 61.3 °F 56.3 °F 83% 29.88 in 10.0 mi SW 6.9 mph - N/A   Overcast
12:55 PM 61.9 °F 55.6 °F 80% 29.87 in 10.0 mi SW 8.1 mph - N/A   Overcast
1:15 PM 63.5 °F 55.9 °F 76% 29.86 in 10.0 mi WSW 9.2 mph - N/A   Overcast
1:35 PM 62.6 °F 53.1 °F 71% 29.85 in 10.0 mi West 6.9 mph - N/A   Overcast
1:55 PM 62.6 °F 54.5 °F 75% 29.85 in 10.0 mi SW 6.9 mph - N/A   Overcast
2:15 PM 62.6 °F 55.2 °F 77% 29.85 in 10.0 mi SSW 9.2 mph - N/A   Overcast
2:35 PM 62.8 °F 55.6 °F 77% 29.84 in 10.0 mi SSW 6.9 mph - N/A   Overcast
2:55 PM 63.7 °F 56.3 °F 77% 29.84 in 10.0 mi South 9.2 mph - N/A   Overcast
3:15 PM 65.7 °F 54.3 °F 67% 29.83 in 10.0 mi SW 15.0 mph 19.6 mph N/A   Mostly Cloudy
3:35 PM 67.1 °F 52.9 °F 60% 29.83 in 10.0 mi WSW 13.8 mph - N/A   Clear
3:55 PM 67.1 °F 53.1 °F 61% 29.83 in 10.0 mi WSW 11.5 mph 19.6 mph N/A   Scattered Clouds
4:15 PM 65.3 °F 53.1 °F 65% 29.82 in 10.0 mi SW 10.4 mph 16.1 mph N/A   Scattered Clouds
4:35 PM 65.3 °F 53.6 °F 66% 29.82 in 10.0 mi SW 10.4 mph - N/A   Clear
4:55 PM 64.9 °F 54.0 °F 68% 29.83 in 10.0 mi SSW 4.6 mph - N/A   Clear
5:15 PM 64.9 °F 54.7 °F 69% 29.83 in 10.0 mi SSW 5.8 mph - N/A   Clear
5:35 PM 64.0 °F 55.0 °F 73% 29.83 in 10.0 mi SW 4.6 mph - N/A   Clear
5:55 PM 63.0 °F 55.4 °F 76% 29.84 in 10.0 mi WSW 5.8 mph - N/A   Clear
6:15 PM 63.7 °F 52.2 °F 66% 29.85 in 10.0 mi West 6.9 mph - N/A   Clear
6:35 PM 62.6 °F 52.2 °F 69% 29.85 in 10.0 mi West 6.9 mph - N/A   Clear
6:55 PM 61.3 °F 52.2 °F 72% 29.85 in 10.0 mi West 6.9 mph - N/A   Clear
7:15 PM 60.4 °F 52.3 °F 75% 29.86 in 10.0 mi West 5.8 mph - N/A   Clear
7:35 PM 60.1 °F 52.0 °F 75% 29.87 in 10.0 mi West 5.8 mph - N/A   Clear
7:55 PM 59.5 °F 52.0 °F 76% 29.88 in 10.0 mi West 5.8 mph - N/A   Clear
8:15 PM 59.2 °F 51.8 °F 77% 29.89 in 10.0 mi NW 6.9 mph - N/A   Clear
8:35 PM 58.5 °F 51.8 °F 79% 29.90 in 10.0 mi NW 5.8 mph - N/A   Scattered Clouds
8:55 PM 58.3 °F 50.4 °F 75% 29.91 in 10.0 mi NW 10.4 mph - N/A   Scattered Clouds
9:15 PM 58.1 °F 47.8 °F 69% 29.92 in 10.0 mi NW 10.4 mph 16.1 mph N/A   Scattered Clouds
9:35 PM 57.2 °F 46.8 °F 68% 29.94 in 10.0 mi NW 5.8 mph - N/A   Clear
9:55 PM 55.0 °F 47.3 °F 75% 29.94 in 10.0 mi NW 3.5 mph - N/A   Scattered Clouds
10:15 PM 54.5 °F 46.9 °F 76% 29.96 in 10.0 mi WNW 3.5 mph - N/A   Scattered Clouds
10:35 PM 53.6 °F 47.3 °F 79% 29.95 in 10.0 mi WNW 3.5 mph - N/A   Scattered Clouds
10:55 PM 52.3 °F 47.3 °F 83% 29.95 in 10.0 mi West 3.5 mph - N/A   Clear
11:15 PM 52.7 °F 46.9 °F 81% 29.96 in 10.0 mi West 3.5 mph - N/A   Clear
11:35 PM 51.8 °F 46.2 °F 81% 29.96 in 10.0 mi WNW 4.6 mph - N/A   Clear
11:55 PM 50.9 °F 45.9 °F 83% 29.96 in 10.0 mi West 4.6 mph - N/A   Clear